Terminal Aerodrome Forecast
Issued by NWS

Home | Current Version | Previous Version | Graphics & Text | Print | Product List | Glossary On
Versions: 1 2 3 4 5 6 7 8 9 10 11 12 13 14 15 16 17 18 19 20 21 22 23 24
000
FTUS43 KLOT 272340
TAFDPA
TAF
KDPA 272340Z 2800/2824 20004KT P6SM FEW070 FEW250
     FM281300 17014KT P6SM FEW045 BKN250
     FM281500 19018G28KT P6SM SCT045 BKN120 PROB30 2816/2819 4SM
      -SHRA=

USA.gov is the U.S. government's official web portal to all federal, state and local government web resources and services.